Theta_e
308 307 308 309 307 308 306 305 305 306 307 309 308 308 309 308 308 309 309 309 308 309 309 310 310 310 309 308 307 305 304 303 301 301 300 300 300 300 300 298 297 298 297 296
308 308 307 307 306 307 307 308 308 308 308 306 307 308 308 308 309 309 310 310 310 308 308 307 308 308 308 309 307 304 304 302 302 301 300 299 298 298 299 298 297 298 297 296
309 309 307 307 307 308 306 307 308 308 307 306 306 308 307 307 307 308 309 309 309 308 308 308 305 305 305 305 306 305 304 302 301 300 298 298 299 298 297 296 297 297 298 297
307 307 308 308 308 307 309 306 307 308 308 309 307 311 308 310 309 306 307 307 305 304 305 305 304 303 304 306 307 305 304 302 301 299 298 298 298 297 297 296 297 298 298 297
308 308 308 309 309 307 309 308 307 308 308 307 308 308 311 307 308 307 306 305 304 304 303 303 303 304 306 306 307 306 304 302 300 299 299 297 298 298 297 296 295 295 297 297
306 305 306 308 307 306 307 309 307 305 306 311 309 308 310 308 309 308 308 307 305 304 303 301 302 303 303 304 305 303 302 302 300 299 298 298 298 298 296 295 294 294 294 295
306 306 307 306 308 307 308 308 310 310 310 314 307 308 312 309 307 308 309 307 305 303 302 300 300 300 301 303 302 301 300 299 298 298 297 297 297 297 295 295 294 292 292 293
307 316 306 305 307 309 306 307 309 309 311 315 307 312 313 307 307 305 304 304 303 302 300 300 300 298 302 303 301 299 298 298 297 297 296 296 297 297 296 296 295 294 293 294
307 309 306 304 306 306 306 309 307 309 298 304 311 310 311 308 307 306 306 304 304 301 301 300 299 299 301 302 304 299 297 297 297 297 296 296 296 296 296 296 295 295 295 295
309 310 306 306 306 306 306 306 309 306 313 310 312 310 313 312 310 308 305 303 302 302 305 309 303 300 303 304 303 299 298 297 297 297 297 296 295 296 295 295 295 295 295 295
308 312 315 310 307 307 306 308 307 307 312 316 319 316 313 311 309 307 309 308 305 304 304 303 298 300 301 300 299 298 297 297 297 296 296 296 295 295 295 294 294 294 294 294
309 314 317 316 312 307 308 313 312 315 316 311 313 315 312 311 310 309 309 309 307 301 298 297 296 296 296 297 297 297 298 297 297 296 295 295 294 294 294 294 294 294 294 292
313 316 318 315 311 308 312 311 311 312 313 315 316 315 311 311 311 310 307 299 300 299 298 296 295 294 294 294 293 294 295 295 295 296 296 295 294 293 294 293 293 293 293 292
311 313 315 316 314 309 311 309 307 308 309 311 311 315 314 310 305 297 298 296 295 294 294 294 294 293 293 292 292 292 293 293 292 293 294 295 294 294 294 293 293 292 291 291
305 306 307 304 303 303 303 303 303 304 304 306 305 306 305 296 295 297 294 293 293 293 292 292 292 292 292 292 292 291 291 290 290 290 291 292 293 294 293 293 292 291 291 290
298 300 299 298 299 298 298 297 297 299 299 301 306 304 294 293 293 294 294 292 291 291 292 292 291 292 292 291 291 290 290 290 289 290 290 290 292 292 292 292 292 291 290 289
295 295 289 297 296 293 292 293 294 296 296 296 300 295 293 292 291 291 292 292 290 290 291 292 291 292 291 291 290 290 289 289 289 289 289 288 289 290 291 291 290 290 289 288
293 290 286 289 285 288 293 296 294 296 293 292 292 294 292 291 290 290 292 290 289 288 289 290 290 290 290 290 289 289 288 288 288 288 288 287 286 288 289 290 289 288 287 287
293 293 285 288 286 293 296 291 289 288 289 289 290 292 293 290 289 287 288 288 288 288 288 288 288 288 288 288 288 287 287 288 288 288 286 285 285 285 287 287 287 287 286 285
289 292 293 280 288 288 290 290 290 289 287 286 287 288 289 290 286 286 287 288 287 287 287 287 286 286 285 285 285 284 285 286 287 288 286 284 286 285 284 285 285 285 284 284
277 274 280 276 278 282 286 288 287 284 287 283 287 289 289 288 286 286 286 284 284 285 285 284 284 284 283 283 282 283 283 285 285 282 283 284 285 287 284 283 283 283 283 282
284 279 277 272 274 282 285 287 284 286 286 285 287 288 287 287 286 285 284 283 282 282 281 281 282 281 281 281 280 280 281 280 278 279 282 284 283 284 285 282 281 281 281 280
286 285 281 282 283 287 285 287 288 288 287 287 287 287 286 285 284 283 282 282 281 281 280 280 279 279 279 278 278 278 277 276 277 278 277 278 281 282 282 282 281 279 279 279
286 287 286 287 288 287 288 288 287 287 287 287 286 285 283 283 282 281 281 281 280 279 278 278 277 277 276 276 275 275 274 274 274 274 274 275 277 281 281 280 280 279 278 279
288 286 285 287 288 288 287 287 287 287 286 284 283 282 281 280 280 280 279 278 278 277 276 276 276 275 274 273 273 272 271 271 270 271 271 272 274 277 281 280 280 279 280 280
288 289 288 288 288 287 288 288 285 284 283 280 279 278 279 278 278 277 276 275 275 275 274 274 273 272 271 270 270 269 268 267 267 268 269 270 272 274 278 280 280 280 281 280
Wind_Speed
1 4 8 21 12 2 1 5 7 9 12 4 15 18 20 18 20 22 22 20 22 23 23 26 29 28 28 32 35 40 42 44 43 42 41 41 49 49 49 49 47 44 42 39
2 7 13 2 4 7 9 12 15 13 18 5 14 19 19 20 22 26 26 25 21 15 13 16 23 23 27 33 36 37 43 44 48 48 45 32 37 40 47 50 49 47 45 42
11 6 8 7 5 8 6 7 17 13 7 6 9 11 9 9 11 20 25 22 17 15 18 18 10 17 21 26 32 37 41 43 45 45 41 37 27 28 38 43 47 47 46 44
7 5 7 3 7 11 16 12 13 11 4 4 5 10 3 13 15 10 15 14 12 11 11 12 9 11 15 24 30 34 36 41 46 43 37 42 40 30 43 43 52 54 50 48
8 5 4 5 10 7 10 5 5 2 4 5 3 4 3 4 6 10 9 9 10 12 8 10 10 13 22 20 25 31 35 38 41 46 45 40 35 35 29 33 42 50 52 51
8 3 5 7 5 9 2 1 3 3 2 7 12 9 3 4 6 4 3 7 8 8 9 7 9 12 18 18 19 26 31 37 40 43 45 47 42 33 32 37 39 44 48 51
2 5 4 5 3 0 3 4 4 4 1 10 2 5 12 6 9 6 11 11 6 7 7 10 12 12 20 25 24 23 26 31 34 39 41 41 37 33 34 36 35 37 40 47
4 13 8 5 9 8 7 8 5 7 6 12 3 14 11 8 6 8 5 4 6 9 7 7 8 8 20 27 23 19 22 28 29 35 37 35 37 38 40 39 37 40 42 46
5 8 2 6 3 6 5 5 3 3 2 1 11 20 19 12 7 3 5 4 8 8 9 10 9 9 16 22 21 17 18 22 24 30 35 39 40 41 42 40 43 44 43 43
3 11 5 1 3 1 5 3 1 2 3 11 12 7 20 15 10 8 9 10 10 8 12 18 12 11 17 21 22 15 16 20 23 27 32 37 39 42 41 43 44 46 44 43
4 2 9 1 6 9 2 3 3 2 5 12 12 11 16 10 6 9 12 12 9 10 11 10 9 18 28 30 24 22 18 16 23 27 31 35 38 41 41 42 42 44 43 45
6 3 6 14 12 7 7 20 22 13 9 9 17 19 23 20 14 9 16 17 18 18 17 17 17 23 25 31 30 28 27 23 24 25 28 34 35 37 39 42 46 45 44 43
3 3 8 16 3 5 0 4 7 14 17 26 21 17 4 14 21 19 18 11 14 16 18 18 19 18 24 29 31 31 32 33 30 26 28 32 35 34 40 41 42 44 44 43
3 5 10 10 15 7 8 11 19 16 9 14 17 19 12 17 18 24 19 18 15 16 17 17 17 17 24 27 29 32 32 34 36 31 27 32 33 38 40 40 40 41 43 43
1 5 2 13 14 17 16 19 23 22 23 21 27 27 10 11 13 12 17 18 17 16 16 16 18 17 24 27 30 31 30 33 37 36 32 29 33 35 36 36 36 37 39 42
2 4 6 13 22 9 18 22 22 25 27 26 21 17 5 6 12 14 16 18 21 22 20 19 18 16 19 27 29 31 31 32 32 31 32 36 34 34 35 37 36 37 39 40
3 3 2 15 20 10 10 14 15 10 8 5 6 4 6 8 13 11 13 12 13 16 17 16 17 17 23 27 29 29 33 32 30 28 28 29 29 30 32 33 34 37 36 35
9 3 3 7 4 4 6 6 7 7 5 6 6 5 4 8 9 11 7 5 12 14 15 15 14 22 27 30 30 29 32 29 28 27 29 33 33 30 29 28 32 30 30 33
15 8 3 3 6 9 13 4 3 4 5 4 4 7 7 7 8 5 7 6 11 13 14 17 21 26 29 30 31 31 32 30 28 24 28 32 34 29 28 25 26 27 25 28
4 9 5 2 2 5 4 3 5 2 5 6 5 6 5 4 5 11 10 10 12 13 17 19 23 23 25 28 28 29 30 29 27 29 32 34 35 32 26 27 25 22 22 23
3 3 5 3 3 8 5 6 3 3 7 4 4 6 7 5 5 11 17 9 12 15 17 22 23 22 24 26 26 26 27 25 27 37 36 33 35 32 24 22 23 21 22 19
4 3 3 3 3 8 5 3 4 8 6 5 7 11 9 9 11 11 13 14 12 13 20 23 21 23 25 25 24 26 25 28 31 33 32 30 28 32 27 18 16 19 20 18
4 7 4 9 7 5 5 12 17 11 9 14 10 13 7 11 13 13 12 15 14 17 20 21 21 25 29 26 24 25 30 31 30 32 33 32 31 27 28 23 17 13 17 14
6 6 8 12 15 17 19 19 10 10 17 16 10 6 6 12 12 13 12 14 15 21 22 23 22 22 27 27 29 29 31 29 31 32 33 32 30 29 24 24 20 17 18 15
7 5 6 13 17 17 18 16 17 17 10 4 3 4 8 8 14 12 13 16 16 22 27 25 23 25 32 32 30 28 29 29 32 33 33 31 29 29 25 24 22 23 26 25
7 16 10 14 20 15 19 17 3 3 4 4 5 10 10 9 14 14 17 19 21 23 29 27 30 30 35 34 35 32 30 29 31 33 30 28 27 27 26 22 20 26 27 23
Wind_Direction
188 149 193 227 206 284 170 252 248 266 276 299 268 268 275 275 285 273 265 260 263 259 264 273 270 265 255 249 239 232 228 224 216 209 206 213 218 219 222 222 221 218 217 216
74 226 224 85 165 228 250 269 269 273 264 205 269 273 268 264 256 262 271 273 267 274 270 269 266 256 245 244 239 231 231 220 216 210 209 208 209 217 223 223 223 219 216 215
213 211 205 194 173 239 219 219 260 261 320 250 297 273 230 261 252 261 265 264 276 269 280 279 279 256 255 243 242 238 233 225 219 209 200 201 202 214 216 218 223 221 219 216
242 259 196 150 215 213 266 224 250 266 359 248 16 297 305 260 270 245 264 273 267 258 263 278 301 298 267 262 255 247 236 228 220 209 201 197 201 198 209 208 213 217 216 216
245 188 172 186 219 145 241 199 227 189 207 337 228 267 236 152 260 270 278 277 273 271 289 284 283 288 303 294 267 252 238 231 218 209 205 203 209 213 210 199 205 212 212 216
245 307 178 221 233 182 48 42 50 68 102 270 203 198 96 164 194 239 228 275 268 325 328 306 309 318 327 325 289 265 243 227 219 212 208 207 209 207 199 193 199 203 208 212
249 227 242 168 223 52 146 76 308 318 43 255 172 228 251 237 223 213 282 270 310 331 342 346 346 338 349 331 317 277 243 227 218 212 211 213 210 208 205 201 196 193 199 206
236 282 187 174 199 191 180 168 167 238 261 282 90 261 270 212 247 240 321 307 318 324 337 329 328 320 321 323 327 293 246 228 219 216 212 216 217 213 212 213 206 204 204 210
220 258 200 204 152 149 172 179 195 292 7 305 266 277 282 219 284 283 290 8 317 321 307 290 289 283 312 320 325 293 253 241 228 224 222 221 220 218 215 215 217 217 216 214
298 299 212 289 93 48 174 187 51 357 256 258 268 273 262 302 307 319 323 342 337 312 309 310 306 319 328 316 321 301 272 261 241 231 232 229 224 222 223 221 218 220 219 217
16 137 254 10 195 195 89 250 244 231 203 250 261 257 273 291 305 329 315 311 299 290 292 311 325 324 330 343 338 325 300 266 256 245 236 234 233 229 224 227 226 224 223 219
205 214 251 253 242 202 210 253 241 244 247 231 254 260 284 295 309 314 314 318 353 20 16 16 15 14 7 6 2 0 339 312 295 278 264 254 242 234 229 227 227 228 225 223
83 227 292 290 67 20 142 335 295 307 269 260 267 266 285 319 324 324 11 48 18 14 9 3 4 5 1 0 356 356 354 347 338 308 277 258 251 242 236 232 229 228 226 225
147 222 230 264 280 333 285 326 305 284 280 300 294 308 321 320 343 342 10 29 22 16 7 360 0 355 353 352 350 350 346 346 341 337 304 276 257 249 242 237 234 231 229 223
116 258 329 304 292 303 306 283 275 271 272 264 281 282 322 15 356 352 352 2 5 8 8 356 350 345 342 344 343 342 341 341 338 334 329 296 280 271 257 246 238 233 228 227
353 285 347 290 288 294 289 287 271 267 269 269 268 275 35 16 9 5 349 350 348 345 347 347 346 342 338 336 335 332 332 336 338 332 329 323 303 285 266 254 242 232 229 223
222 213 100 273 286 324 288 252 263 279 348 327 286 42 8 349 345 327 309 326 343 337 333 331 336 329 327 328 328 326 326 330 334 335 335 335 322 296 276 259 241 228 221 218
241 210 163 264 48 241 248 87 100 119 120 85 38 349 301 292 308 291 271 324 332 325 323 325 322 319 320 319 322 323 326 329 331 329 340 344 339 321 291 263 240 229 217 217
218 220 247 226 205 281 305 20 39 93 256 207 230 265 253 286 289 278 349 318 317 314 314 314 317 316 318 317 320 324 323 327 325 326 332 337 341 331 307 276 255 242 224 213
68 214 201 23 214 235 244 231 245 178 259 218 206 252 236 250 305 302 324 320 308 296 290 299 306 306 309 312 320 320 318 320 319 323 326 327 332 335 321 295 273 256 240 231
16 10 180 246 249 284 246 241 275 100 279 259 191 249 236 239 228 282 302 297 291 292 295 297 299 296 298 302 312 312 313 308 323 318 314 316 322 322 320 307 289 254 236 228
157 161 224 72 41 285 198 329 135 269 280 257 266 266 243 257 274 281 286 295 297 296 298 299 298 297 296 299 304 301 297 306 311 311 312 312 308 313 308 294 279 260 233 207
268 196 202 187 225 244 238 275 283 287 260 284 274 276 236 266 270 284 287 289 294 292 292 295 290 293 296 300 298 295 301 308 311 310 308 308 307 300 300 277 261 231 232 207
242 212 238 263 262 257 268 276 271 272 277 280 267 249 240 260 277 287 289 288 293 294 291 295 291 286 291 296 298 295 302 307 306 303 304 307 307 298 279 266 247 230 212 217
238 160 218 253 271 275 268 262 263 268 274 280 283 248 264 279 283 287 287 286 289 290 292 294 289 290 290 297 295 294 297 303 301 300 299 299 297 291 278 257 245 230 235 217
221 247 242 257 269 266 274 279 349 296 313 345 325 308 299 291 292 296 287 289 291 292 294 295 292 291 291 296 295 295 298 297 294 292 291 289 290 287 285 266 259 248 243 236